Regional Weather Roundup
Issued by NWS Kansas City/Pleasant Hill, MO

Home | Current Version | Previous Version | Graphics & Text | Print | Product List | Glossary Off
Versions: 1 2 3 4 5 6 7 8 9 10 11 12 13 14 15 16 17 18 19 20 21 22 23 24 25 26 27

000
ASUS43 KEAX 181110
RWREAX

WEATHER ROUNDUP FOR EASTERN KANSAS AND NORTHWEST MISSOURI
NATIONAL WEATHER SERVICE KANSAS CITY/PLEASANT HILL MO
500 AM CST MON DEC 18 2017

KSZ040-057-103>105-MOZ028-029-037-043-181200-
...KANSAS CITY METROPOLITAN AREA...

CITY           SKY/WX    TMP DP  RH WIND       PRES   REMARKS
K.C. INTL      CLOUDY    39  38  96 SW5       30.02S FOG
K.C. DOWNTOWN  PTCLDY    44  39  82 W6        30.03R
LEES SUMMIT    CLOUDY    44  42  93 SW9       30.03S
OLATHE - IXD   CLOUDY    43  42  97 SW7       30.04S
OLATHE - OJC   CLOUDY    42  42 100 SW5       30.03S
LAWRENCE       CLEAR     38  37  97 W5        30.04R FOG     WCI  34

$$

MOZ001>008-011>017-020>025-030>033-038>040-044>046-053-054-181200-
...NORTHERN AND CENTRAL MISSOURI...

CITY           SKY/WX    TMP DP  RH WIND       PRES   REMARKS
ST. JOSEPH     CLOUDY    36  36 100 W8        30.03S FOG     WCI  30
MOSBY          SUNNY     43  39  87 SW3       30.02S
WARRENSBURG    CLOUDY    43  41  93 S8        30.05R
WHITEMAN AFB   CLOUDY    45  43  93 SW9       30.01R
CLINTON        CLOUDY    43  43 100 SW7       30.07R
SEDALIA        CLOUDY    45  44  97 SW9       30.06R
WARSAW         NOT AVBL
CHILLICOTHE      N/A     44  42  93 SW3       30.01S
KIRKSVILLE     CLOUDY    44  44 100 SW8       29.99S

$$

MOZ041-047>049-056>058-063>065-088>090-097-181200-
...EASTERN AND SOUTHERN MISSOURI...

CITY           SKY/WX    TMP DP  RH WIND       PRES   REMARKS
ST. LOUIS INTL DRIZZLE   47  43  86 SW9       30.07R
SPIRIT OF STL  CLOUDY    46  43  89 SW6       30.06S
COLUMBIA       CLOUDY    45  42  89 SW10      30.04S
JEFFERSON CITY CLOUDY    46  42  86 SW8       30.06S
ROLLA          CLOUDY    43  43 100 SW6       30.06F
OSAGE BEACH    CLOUDY    44  42  93 SW6       30.08S
SPRINGFIELD    CLOUDY    44  42  93 W9        30.08S
BRANSON        CLOUDY    45  41  87 W3        30.12R
JOPLIN         CLOUDY    44  44 100 SW10      30.10S
WEST PLAINS    CLOUDY    46  45  96 SW6       30.09S

$$

IAZ060-094-KSZ022-034>040-054-083-096-NEZ052-066-093-181200-
...KANSAS...SOUTHEAST NEBRASKA AND IOWA...

CITY           SKY/WX    TMP DP  RH WIND       PRES   REMARKS
TOPEKA         FOG       33  33 100 CALM      30.03S VSB 1/4
MANHATTAN      CLEAR     30  29  96 SW8       30.04F FOG     WCI  22
EMPORIA        CLEAR     33  31  92 W7        30.05R WCI  27
CHANUTE        CLOUDY    45  42  89 SW9       30.09R
WICHITA        PTCLDY    28  27  96 W3        30.08R
OMAHA          CLOUDY    25  21  85 SE10      29.96S FOG     WCI  15
LINCOLN        CLEAR     25  23  92 S6        29.96F WCI  18
FALLS CITY     CLEAR     32  31  96 SW3       30.00S FOG
LAMONI         CLOUDY    32  31  96 W13       29.98R FOG     WCI  22
DES MOINES     FOG       27  26  96 W6        29.97S VSB 1/8 WCI  20

$$





USA.gov is the U.S. government's official web portal to all federal, state and local government web resources and services.